Location: Altenhof
(50.2418°N, 10.8789°E)
Time: 10:35:13
(UTC+00:00)

Cosmos 1315 Rocket - Pass Details

Date: 18 February 2020
Orbit: 530 x 568 km, 81.2° (Epoch: 04 April)

Event Time Altitude Azimuth Distance (km) Brightness Sun altitude
Rises 05:36:12 0° 175° (S) 2,689 6.5 -8.1°
Reaches altitude 10° 05:38:25 10° 169° (SSE) 1,796 5.7 -7.8°
Maximum altitude 05:42:11 45° 96° (E) 743 4.1 -7.2°
Drops below altitude 10° 05:45:57 10° 24° (NNE) 1,796 5.6 -6.6°
Sets 05:48:10 0° 18° (NNE) 2,690 6.4 -6.3°
